Location: El Gallo
(32.4380°N, 116.9347°W)
Time: 20:21:09
(UTC+00:00)

Lacrosse 5 rocket - Pass Details

Date: 01 October 2022
Orbit: 459 x 619 km, 57.0° (Epoch: 01 December)

Event Time Altitude Azimuth Distance (km) Brightness Sun altitude
Rises 00:29:40 0° 280° (W) 2,637 6.2 12.5°
Enters shadow 00:59:55 -48° 151° (SSE) 10,047 7.5 6.2°
Exits shadow 01:24:56 -74° 44° (NE) 12,869 8.1 1.0°
Drops below altitude 10° 12:38:01 -1° 183° (S) 2,932 4.9 -14.3°
Sets 12:38:06 0° 183° (S) 2,906 4.9 -14.3°
Maximum altitude 12:44:15 20° 119° (ESE) 1,447 4.2 -13.0°
